sat.trackr.live / text

‹ back to catalog

STARLINK-2471

NORAD 48129 · 2021-027AP

PAYLOAD ACTIVE UNKNOWN

§ Identity

Operator
Country
US
Launch date
2021-04-07
Launch site
AFETR
Launch vehicle
Mass (kg)
RCS (m²)

Purposes: comms

External: N2YO · Heavens-Above · Gunter

§ Orbital elements

Epoch: 2026-09-09T13:24:31.323168Z

Period
94.01 min
Inclination
53.1618°
Eccentricity
0.0001154
Mean motion
15.31717875 rev/d
Perigee alt
469.9 km
Apogee alt
471.5 km
Semi-major
6,848.8 km
B*
1.1651e-4
RAAN
29.8928°
Arg perigee
93.4362°
Mean anomaly
266.6771°
Rev number
30,068

§ Raw data

STARLINK-24711 48129U 21027AP  26252.55869587  .00003254  00000+0  11651-3 0  99962 48129  53.1618  29.8928 0001154  93.4362 266.6771 15.31717875300683

JSON: /api/v1/satellites/48129 · /tle

For live sub-satellite position, see the globe view (requires WebGL).

§ Visibility from observer

Set your observer location to see the next 7 days of passes ≥ 10°. The values pass through the URL so the page stays shareable.

No JS? Fill the form by hand. The geolocation button needs JavaScript.